Les vidéos Equidia

Discipline Date Nom de la Course Hippodrome Alloc Jockey/Driver Red. Km Dist Corde Ferrure Autostart Class Video
Attelé 2019-04-30 ST-ETIENNE MET. SAINT GALMIER 32.000 euros TH. LEMOINE 1'17"50 2650 D 13
Attelé 2018-12-16 L'HUITRIER LYON LYON-PARILLY 32.000 euros J.PH. DUCHER 1'16"40 2600 G A 13
Attelé 2018-12-05 G.P.FEDERATION MARSEILLE PONT DE VIVAUX 26.000 euros J.CH. FERON 1'16"90 2650 G 10
Attelé 2018-11-20 CANTINI MARSEILLE PONT DE VIVAUX 25.000 euros V. FOUCAULT 1'16"10 2650 G 12
Attelé 2018-09-19 DE CARPENTRAS MARSEILLE-BORELY 25.000 euros J.CH. FERON 1'17"00 3000 G 05
Attelé 2018-06-28 BOIS DU BOUC VICHY 36.000 euros L. BORDE 1'14"50 2975 D 06
Monté 2018-06-13 JEAN TORTEL VICHY 38.000 euros MLLE M. DUCRE 1'16"20 2975 D 11
Attelé 2018-06-02 LEVIE MARSEILLE-BORELY 32.000 euros J.PH. DUCHER 1'14"50 3000 G 12
Attelé 2018-05-13 VILLE MONTLUCON MONTLUCON 32.000 euros L. BORDE 3025 D 06
Attelé 2018-04-22 ACTIONS AUTO.84 AVIGNON 26.000 euros L. BORDE 1'17"70 2650 G 05
Attelé 2018-04-12 G.P PRINTEMPS LYON LA SOIE 32.000 euros L. BORDE 1'16"40 2700 D 07
Attelé 2017-11-11 ROUTE LA SOIE LYON LA SOIE 32.000 J.PH. DUCHER 2700 D 08
Attelé 2017-10-02 REST.L'AMANDINE SAINT GALMIER 32.000 L. BORDE 2600 D A 10
Attelé 2017-09-21 LUGDUNUM LYON LA SOIE 32.000 L. BORDE 1'16"30 2700 D 11
Attelé 2017-07-23 ASSE FEURS 26.000 L. BORDE 1'12"80 2050 G A 05
Attelé 2017-07-07 EIFFAGE FEURS 24.000 TH. LEMOINE 1'14"60 2850 G 01
Attelé 2017-06-10 VILLENEUVE/LOT PARIS-VINCENNES 48.000 P. VERCRUYSSE 1'15"50 2850 G 14
Attelé 2017-05-26 BARON D'ARDEUIL TOULOUSE 25.000 L. BORDE 1'17"90 2750 D A 01
Attelé 2017-05-13 PARIS-TURF PARAY-LE-MONIAL 28.000 L. BORDE 1'16"73 2625 D 01
Attelé 2017-04-07 GRATIA PARIS-VINCENNES 47.000 P. VERCRUYSSE 1'13"80 2850 G 06
Attelé 2016-09-25 METROPOLE LYON LYON-PARILLY 25.000 J.PH. DUCHER 1'17"50 2850 G 16
Attelé 2016-09-13 FEDE.SUD-OUEST TOULOUSE 40.000 L. BORDE 1'17"90 2950 D 11
Attelé 2016-07-30 LA BOURSE ENGHIEN 44.000 P. VERCRUYSSE 2150 G A
Attelé 2016-06-04 PRUNELLI DI FIU MARSEILLE-BORELY 22.000 L. BORDE 1'15"80 2300 G A 01
Attelé 2016-05-25 BRANSAT VICHY 30.000 L. BORDE 1'16"10 2800 D A 02
Attelé 2016-04-19 CREDIT MUTUEL CAVAILLON 23.000 L. BORDE 1'14"50 2525 D A 03
Attelé 2016-03-14 AUGUSTIN GENY CHATILLON/CHALARONNE 25.000 L. BORDE 1'17"51 2675 G 05
Attelé 2016-03-07 REST. THOLLOT SAINT GALMIER 26.000 L. BORDE 1'15"90 2650 D 01
Attelé 2016-02-14 CARRE DE SOIE LYON LA SOIE 22.000 L. BORDE 1'15"10 2700 D 01
Attelé 2016-01-17 PARC LA VANOISE LYON LA SOIE 20.000 L. BORDE 1'15"80 2700 D 01
Attelé 2015-12-06 OISE LYON-PARILLY 25.000 L. BORDE 1'15"90 2600 G A 05
Attelé 2015-10-27 DES APPRENTIS LYON LA SOIE 22.000 Q. DAOUGABEL 1'16"80 2700 D 08
Attelé 2015-05-25 DE SAINT LAUMER CHATILLON/CHALARONNE 24.000 L. BORDE 1'18"77 3175 G 01
Attelé 2015-05-15 KERJACQUES TOULOUSE 20.000 L. BORDE 1'16"20 2950 D 01
Attelé 2015-04-16 BOULOGNE ENGHIEN 46.000 L. BORDE 1'15"10 2150 G A 06
Attelé 2015-04-02 ASSOCIATIONS SAINT GALMIER 22.000 L. BORDE 1'16"30 2650 D 11
Attelé 2014-10-11 BONNET LES OULE SAINT GALMIER 25.000 L. BORDE 2650
Attelé 2014-05-11 DE DAX LYON-PARILLY 28.000 L. BORDE 2850
Attelé 2014-04-15 FRANCE BLEU CAVAILLON 23.000 L. BORDE 1'15"60 2525 A 01
Attelé 2014-03-28 DE LA CAVALERIE PARIS-VINCENNES 50.000 P. VERCRUYSSE 2100 A
Attelé 2014-03-13 DUCHE BRETAGNE LYON-PARILLY 22.000 L. BORDE 2850
Attelé 2014-03-03 RESTO THOLLOT SAINT GALMIER 26.000 L. BORDE 2675